Flag for Austria Weather past 2 weeks in Güssing, Burgenland, Austria

Now
44 °F

Quite cool.


Feels Like: N/A
Forecast: 31 / 50 °F
Wind: N/A

Location: Murska Sobota

Current Time: Mar 3, 2015 at 10:01:12 AM

Latest Report: Mar 3, 2015 at 9:00 AM


Visibility: N/A

Pressure: 30.25 "Hg

Humidity: 53%

Dew point: 28 °F

Location of GüssingLocation

Historic Weather in Güssing — Graph

°F

Güssing temperature yesterday

Maximum temperature yesterday: 53 °F (at 4:00 PM)
Minimum temperature yesterday: 37 °F (at 12:00 AM)
Average temperature yesterday: 47 °F

Past Weeks' High & Low Weather Summary

 TemperatureHumidityPressure
High53 °F (Mar 2, 4:00 PM)98% (Feb 24, 4:00 AM)30.79 "Hg (Feb 24, 4:00 AM)
Low22 °F (Feb 20, 7:00 AM)44% (Feb 20, 4:00 PM)29.66 "Hg (Feb 23, 4:00 PM)
Average40 °F77%30.07 "Hg
* Reported Feb 16 8:00 AM — Mar 3 8:00 AM, Güssing, Weather by CustomWeather, © 2015

Note: Actual official high and low records may vary slightly from our data, if they occured in-between our weather recording intervals... More about our weather records

Advertising

Güssing weather history for previous 24 hours

 ConditionsComfort  
Time TempWeatherWind HumidityBarometerVisibility
8:00 AM
Tue, Mar 3
34 °FPassing clouds.1 mph93%30.24 "Hg31 mi
7:00 AM32 °FPassing clouds.1 mph96%30.23 "Hg31 mi
6:00 AM33 °FChilly.1 mph88%30.18 "HgN/A
5:00 AM31 °FChilly.1 mph96%30.16 "HgN/A
4:00 AM33 °FChilly.2 mph96%30.11 "HgN/A
3:00 AM34 °FChilly.3 mph98%30.09 "HgN/A
2:00 AM33 °FChilly.1 mph97%30.05 "HgN/A
1:00 AM35 °FChilly.1 mph97%30.01 "HgN/A
12:00 AM38 °FChilly.2 mph97%29.98 "HgN/A
11:00 PM
Mon, Mar 2
39 °FChilly.2 mph96%29.94 "HgN/A
10:00 PM40 °FQuite cool.1 mph95%29.91 "HgN/A
9:00 PM41 °FQuite cool.2 mph95%29.90 "HgN/A
8:00 PM43 °FQuite cool.1 mph93%29.85 "HgN/A
7:00 PM44 °FOvercast.5 mph89%29.85 "Hg6 mi
6:00 PM45 °FQuite cool.1 mph86%29.81 "HgN/A
5:00 PM47 °FCool.9 mph83%29.80 "HgN/A
4:00 PM53 °FCool.7 mph66%29.71 "HgN/A
3:00 PM53 °FCool.9 mph66%29.71 "HgN/A
2:00 PM52 °FOvercast.6 mph68%29.70 "Hg31 mi
1:00 PM53 °FOvercast.10 mph65%29.71 "Hg31 mi
12:00 PM53 °FCool.N/A63%29.74 "HgN/A
11:00 AM52 °FCool.N/A65%29.74 "HgN/A
10:00 AM51 °FCool.N/A65%29.75 "HgN/A
Weather by CustomWeather, © 2015

See weather overviewHow to use our weather pages